Date String (YYYY-MM-DD hh:mm:ss) UTC,Instrument flags,absolute air pressure of the measurement (hPa),sample flow rate (lpm),inlet stack bypass flow (lpm),air temperature of the measurement (°C),ambient temperature measured by the external sensor (°C),aerosol sample conditioner tube jacket temperature (°C),OPC LED temperature (°C),internal box temperature (°C),relative humidity of the measurement (%),span deviation,mass concentration of particles derived from Lorenz-Mie calculation of OPC scattering (μg/m³),mass concentration of particles derived from Lorenz-Mie calculation of OPC scattering (μg/m³),mass concentration of particles derived from Lorenz-Mie calculation of OPC scattering (μg/m³)
DateTimeUTC,F1_M11,P_M11,Q1_M11,Q2_M11,T1_M11,T2_M11,T3_M11,T4_M11,T5_M11,U1_M11,ZSPAN_M11,X2_M11,X0_M11,X1_M11
2023-07-02 16:00:00,SystemResetWarning,0832.7,5.00,000.00,028.9,026.9,000.0,037.4,030.5,30.8,-000.4,0004.85,0009.42,0004.49
2023-07-02 16:01:00,SystemResetWarning,0832.7,5.00,000.00,028.9,027.2,000.0,037.4,030.6,30.8,-000.8,0004.85,0009.32,0004.48
2023-07-02 16:02:00,SystemResetWarning,0832.7,5.00,000.00,029.0,027.4,000.0,037.5,030.6,30.7,-000.5,0004.85,0009.84,0004.47
2023-07-02 16:03:00,SystemResetWarning,0832.7,5.01,000.00,029.0,027.6,000.0,037.5,030.7,30.6,-000.3,0004.84,0009.67,0004.47
2023-07-02 16:04:00,SystemResetWarning,0832.7,5.00,000.00,029.0,027.8,000.0,037.5,030.8,31.0,-000.1,0004.84,0009.66,0004.49
2023-07-02 16:05:00,SystemResetWarning,0832.7,5.00,000.00,029.1,027.9,000.0,037.5,030.8,30.3,0000.5,0004.84,0009.80,0004.49
2023-07-02 16:06:00,SystemResetWarning,0832.7,4.98,000.00,029.1,026.8,000.0,037.4,030.7,31.8,0001.2,0004.82,0009.74,0004.49
2023-07-02 16:07:00,SystemResetWarning,0832.6,5.00,000.00,029.0,025.4,000.0,037.3,030.5,32.0,0001.1,0004.84,0009.85,0004.50
2023-07-02 16:08:00,SystemResetWarning,0832.6,5.01,000.00,029.0,025.1,000.0,037.2,030.3,32.0,0000.4,0004.88,0010.01,0004.51
2023-07-02 16:09:00,SystemResetWarning,0832.6,5.01,000.00,028.9,025.4,000.0,037.3,030.2,31.8,0000.8,0004.92,0009.84,0004.51
2023-07-02 16:10:00,SystemResetWarning,0832.6,5.00,000.00,028.9,025.8,000.0,037.3,030.2,31.5,0001.4,0004.92,0009.44,0004.51
2023-07-02 16:11:00,SystemResetWarning,0832.6,4.99,000.00,028.8,026.2,000.0,037.4,030.3,31.9,0001.6,0004.91,0008.95,0004.52
2023-07-02 16:12:00,SystemResetWarning,0832.6,4.99,000.00,028.9,026.6,000.0,037.4,030.4,31.9,0001.6,0004.93,0008.83,0004.55
2023-07-02 16:13:00,SystemResetWarning,0832.7,5.00,000.00,028.9,026.9,000.0,037.4,030.5,32.1,0001.4,0004.95,0008.36,0004.56
2023-07-02 16:14:00,SystemResetWarning,0832.6,5.02,000.00,028.9,027.2,000.0,037.4,030.6,31.1,0001.9,0004.96,0008.90,0004.57
2023-07-02 16:15:00,SystemResetWarning,0832.6,5.00,000.00,028.9,027.4,000.0,037.4,030.6,31.9,0001.8,0004.98,0009.54,0004.58
2023-07-02 16:16:00,SystemResetWarning,0832.7,4.99,000.00,029.0,027.6,000.0,037.4,030.7,31.5,0001.6,0005.00,0009.38,0004.60
2023-07-02 16:17:00,SystemResetWarning,0832.6,5.00,000.00,029.0,027.8,000.0,037.5,030.7,30.3,0000.8,0005.00,0009.79,0004.61
2023-07-02 16:18:00,SystemResetWarning,0832.6,5.00,000.00,029.1,027.2,000.0,037.4,030.7,29.9,0000.7,0005.01,0009.75,0004.60
2023-07-02 16:19:00,SystemResetWarning,0832.7,5.01,000.00,029.0,025.6,000.0,037.3,030.5,30.7,0001.2,0005.02,0009.70,0004.60
2023-07-02 16:20:00,SystemResetWarning,0832.6,5.00,000.00,029.0,025.0,000.0,037.2,030.3,31.5,0001.7,0004.99,0010.00,0004.61
2023-07-02 16:21:00,SystemResetWarning,0832.7,5.01,000.00,028.9,025.3,000.0,037.2,030.2,31.4,0001.3,0004.99,0010.45,0004.61
2023-07-02 16:22:00,SystemResetWarning,0832.7,5.00,000.00,028.8,025.6,000.0,037.3,030.2,31.2,0000.9,0005.00,0010.51,0004.61
2023-07-02 16:23:00,SystemResetWarning,0832.6,5.00,000.00,028.8,026.0,000.0,037.3,030.3,31.3,0000.6,0005.05,0010.59,0004.62
2023-07-02 16:24:00,SystemResetWarning,0832.7,5.00,000.00,028.8,026.4,000.0,037.3,030.3,32.4,0000.2,0005.08,0010.63,0004.62
2023-07-02 16:25:00,SystemResetWarning,0832.7,5.01,000.00,028.8,026.8,000.0,037.3,030.4,34.0,-000.2,0005.11,0010.11,0004.65
2023-07-02 16:26:00,SystemResetWarning,0832.6,5.00,000.00,028.9,027.1,000.0,037.3,030.5,32.3,-000.5,0005.13,0009.97,0004.67
2023-07-02 16:27:00,SystemResetWarning,0832.7,4.99,000.00,028.9,027.3,000.0,037.4,030.6,32.6,-000.7,0005.14,0010.14,0004.68
2023-07-02 16:28:00,SystemResetWarning,0832.7,5.00,000.00,028.9,027.5,000.0,037.4,030.6,33.3,-000.4,0005.13,0009.70,0004.68
2023-07-02 16:29:00,SystemResetWarning,0832.7,5.00,000.00,029.0,027.7,000.0,037.4,030.7,31.8,-000.6,0005.13,0009.63,0004.71
2023-07-02 16:30:00,SystemResetWarning,0832.7,5.00,000.00,029.0,027.5,000.0,037.4,030.7,33.0,-001.0,0005.15,0009.88,0004.73
2023-07-02 16:31:00,SystemResetWarning,0832.7,4.99,000.00,029.0,026.0,000.0,037.3,030.5,32.7,-001.3,0005.14,0009.65,0004.75
2023-07-02 16:32:00,SystemResetWarning,0832.7,5.02,000.00,028.9,025.1,000.0,037.2,030.3,33.3,-001.4,0005.14,0009.24,0004.77
2023-07-02 16:33:00,SystemResetWarning,0832.7,5.00,000.00,028.9,025.1,000.0,037.2,030.1,32.5,-001.4,0005.15,0009.23,0004.79
2023-07-02 16:34:00,SystemResetWarning,0832.7,5.00,000.00,028.8,025.5,000.0,037.2,030.1,32.3,-001.5,0005.13,0009.13,0004.80
2023-07-02 16:35:00,SystemResetWarning,0832.7,4.99,000.00,028.8,025.9,000.0,037.2,030.2,33.6,-000.9,0005.13,0009.10,0004.82
2023-07-02 16:36:00,SystemResetWarning,0832.7,5.02,000.00,028.8,026.3,000.0,037.3,030.3,34.1,-000.7,0005.16,0009.38,0004.82
2023-07-02 16:37:00,SystemResetWarning,0832.7,4.98,000.00,029.0,026.6,000.0,037.3,030.4,32.9,-000.3,0005.17,0009.39,0004.82
2023-07-02 16:38:00,SystemResetWarning,0832.7,4.99,000.00,029.0,026.9,000.0,037.3,030.5,31.8,0000.5,0005.19,0009.21,0004.83
2023-07-02 16:39:00,SystemResetWarning,0832.7,5.02,000.00,029.1,027.2,000.0,037.3,030.6,33.0,0000.5,0005.22,0009.24,0004.85
2023-07-02 16:40:00,SystemResetWarning,0832.7,5.00,000.00,029.2,027.4,000.0,037.4,030.7,31.5,0000.5,0005.25,0009.77,0004.86
2023-07-02 16:41:00,SystemResetWarning,0832.8,4.99,000.00,029.2,027.6,000.0,037.4,030.7,31.9,0000.9,0005.25,0009.71,0004.85
2023-07-02 16:42:00,SystemResetWarning,0832.8,5.00,000.00,029.3,027.0,000.0,037.4,030.7,33.2,0000.8,0005.24,0009.91,0004.85
2023-07-02 16:43:00,SystemResetWarning,0832.8,5.00,000.00,029.3,025.5,000.0,037.3,030.5,31.2,0000.7,0005.25,0010.15,0004.85
2023-07-02 16:44:00,SystemResetWarning,0832.8,5.01,000.00,029.2,024.9,000.0,037.2,030.3,31.0,0000.9,0005.26,0010.46,0004.85
2023-07-02 16:45:00,SystemResetWarning,0832.8,5.02,000.00,029.1,025.2,000.0,037.2,030.2,30.8,0001.1,0005.26,0011.35,0004.84
2023-07-02 16:46:00,SystemResetWarning,0832.7,5.00,000.00,029.1,025.5,000.0,037.3,030.2,30.6,0000.5,0005.22,0011.60,0004.83
2023-07-02 16:47:00,SystemResetWarning,0832.7,5.00,000.00,029.0,026.0,000.0,037.4,030.3,31.7,-000.0,0005.19,0011.46,0004.83
2023-07-02 16:48:00,SystemResetWarning,0832.8,5.00,000.00,029.0,026.3,000.0,037.4,030.3,31.0,-000.5,0005.19,0011.06,0004.83
2023-07-02 16:49:00,SystemResetWarning,0832.7,4.99,000.00,029.1,026.7,000.0,037.4,030.4,32.2,-001.2,0005.17,0011.02,0004.82
2023-07-02 16:50:00,SystemResetWarning,0832.7,4.99,000.00,029.1,027.0,000.0,037.4,030.5,31.2,-001.2,0005.15,0010.97,0004.82
2023-07-02 16:51:00,SystemResetWarning,0832.8,5.01,000.00,029.1,027.3,000.0,037.5,030.6,31.8,-001.1,0005.15,0010.95,0004.81
2023-07-02 16:52:00,SystemResetWarning,0833.0,5.01,000.00,029.2,027.5,000.0,037.5,030.6,33.4,-001.2,0005.13,0010.83,0004.79
2023-07-02 16:53:00,SystemResetWarning,0832.8,4.99,000.00,029.2,027.7,000.0,037.5,030.7,30.4,-001.6,0005.13,0010.56,0004.78
2023-07-02 16:54:00,SystemResetWarning,0832.7,4.98,000.00,029.2,027.4,000.0,037.5,030.8,29.4,-001.6,0005.12,0010.84,0004.75
2023-07-02 16:55:00,SystemResetWarning,0832.7,5.00,000.00,029.2,025.9,000.0,037.4,030.5,29.1,-001.5,0005.08,0010.57,0004.72
2023-07-02 16:56:00,SystemResetWarning,0832.7,5.01,000.00,029.1,025.0,000.0,037.3,030.4,30.2,-001.4,0005.08,0010.03,0004.70
2023-07-02 16:57:00,SystemResetWarning,0832.8,5.02,000.00,029.1,025.1,000.0,037.3,030.2,30.0,-001.7,0005.07,0009.48,0004.68
2023-07-02 16:58:00,SystemResetWarning,0832.7,5.00,000.00,029.0,025.4,000.0,037.3,030.1,29.7,-001.6,0005.06,0009.87,0004.66
2023-07-02 16:59:00,SystemResetWarning,0832.8,5.00,000.00,028.9,025.8,000.0,037.3,030.2,29.4,-001.2,0005.02,0010.91,0004.62
